Вернуться в каталог

STARLINK-37048

АктивенСвязьSSO
NORAD 68155·PAYLOAD·🇺🇸 United States

Запущен Mar 13, 2026 с Vandenberg Space Force Base

Loading…

Ближайшие Пролёты (ближайшие 24 часа)

TLE

СвежийSource: CelesTrak SupGP

Эпоха: Sep 14, 2026, 21:10 UTC

1 68155C 26049P   26257.88243056  .00013510  00000+0  41942-3 0  2573
2 68155  97.2837 277.8519 0001198 110.1205 319.5077 15.33429726    16

Отслеживайте STARLINK-37048 в реальном времени с AllMySat

Download on the App Store